H1 CPF 2 NER 2025 10 2 9 275 01 glonass140 H2 1903001 9140 44299 2025 10 2 0 0 0 2025 10 5 23 45 0 900 1 1 0 0 0 1 H9 10 0 60950 0.00000 0 -8240931.154 -11781546.091 21091776.499 10 0 60950 900.00000 0 -5613344.940 -11345265.930 22168414.450 10 0 60950 1800.00000 0 -2855659.230 -11091626.162 22815525.743 10 0 60950 2700.00000 0 -34618.038 -11037207.512 23020646.424 10 0 60950 3600.00000 0 2780702.234 -11186642.890 22779850.897 10 0 60950 4500.00000 0 5521509.561 -11532413.792 22097823.422 10 0 60950 5400.00000 0 8121900.331 -12055172.184 20987766.906 10 0 60950 6300.00000 0 10521344.515 -12724574.426 19471150.707 10 0 60950 7200.00000 0 12666950.631 -13500592.673 17577301.873 10 0 60950 8100.00000 0 14515418.072 -14335249.529 15342846.906 10 0 60950 9000.00000 0 16034596.933 -15174704.102 12811013.763 10 0 60950 9900.00000 0 17204591.364 -15961602.832 10030806.401 10 0 60950 10800.00000 0 18018361.055 -16637597.223 7056066.637 10 0 60950 11700.00000 0 18481795.974 -17145923.109 3944440.359 10 0 60950 12600.00000 0 18613261.390 -17433933.287 756267.305 10 0 60950 13500.00000 0 18442631.994 -17455476.499 -2446584.674 10 0 60950 14400.00000 0 18009855.460 -17173021.747 -5601918.555 10 0 60950 15300.00000 0 17363105.803 -16559437.376 -8648416.911 10 0 60950 16200.00000 0 16556604.196 -15599348.413 -11526836.758 10 0 60950 17100.00000 0 15648199.132 -14290013.121 -14181166.758 10 0 60950 18000.00000 0 14696808.254 -12641679.889 -16559723.625 10 0 60950 18900.00000 0 13759830.183 -10677407.389 -18616165.729 10 0 60950 19800.00000 0 12890636.095 -8432353.575 -20310403.538 10 0 60950 20700.00000 0 12136247.562 -5952561.565 -21609388.513 10 0 60950 21600.00000 0 11535299.285 -3293291.714 -22487764.601 10 0 60950 22500.00000 0 11116373.332 -516968.367 -22928369.148 10 0 60950 23400.00000 0 10896775.737 2309173.832 -22922573.130 10 0 60950 24300.00000 0 10881807.508 5115646.475 -22470453.717 10 0 60950 25200.00000 0 11064561.155 7833360.549 -21580795.537 10 0 60950 26100.00000 0 11426251.399 10396265.735 -20270920.418 10 0 60950 27000.00000 0 11937066.081 12743865.929 -18566348.748 10 0 60950 27900.00000 0 12557501.022 14823506.167 -16500299.023 10 0 60950 28800.00000 0 13240121.987 16592335.681 -14113035.412 10 0 60950 29700.00000 0 13931678.556 18018865.506 -11451076.343 10 0 60950 30600.00000 0 14575479.753 19084056.213 -8566279.961 10 0 60950 31500.00000 0 15113929.991 19781891.235 -5514824.970 10 0 60950 32400.00000 0 15491117.114 20119413.144 -2356107.518 10 0 60950 33300.00000 0 15655342.215 20116223.035 848423.448 10 0 60950 34200.00000 0 15561483.465 19803465.955 4036468.730 10 0 60950 35100.00000 0 15173093.514 19222347.002 7146095.015 10 0 60950 36000.00000 0 14464141.577 18422242.474 10116940.334 10 0 60950 36900.00000 0 13420326.608 17458487.218 12891384.898 10 0 60950 37800.00000 0 12039906.329 16389932.660 15415664.580 10 0 60950 38700.00000 0 10334007.399 15276379.057 17640905.746 10 0 60950 39600.00000 0 8326403.845 14175990.292 19524062.053 10 0 60950 40500.00000 0 6052773.065 13142799.589 21028736.095 10 0 60950 41400.00000 0 3559460.218 12224410.174 22125871.263 10 0 60950 42300.00000 0 901802.047 11459986.289 22794301.741 10 0 60950 43200.00000 0 -1857920.993 10878617.498 23021151.335 10 0 60950 44100.00000 0 -4652820.426 10498123.492 22802074.544 10 0 60950 45000.00000 0 -7413927.792 10324348.296 22141336.006 10 0 60950 45900.00000 0 -10072811.890 10350972.506 21051727.233 10 0 60950 46800.00000 0 -12564178.505 10559850.872 19554322.212 10 0 60950 47700.00000 0 -14828346.511 10921860.980 17678076.166 10 0 60950 48600.00000 0 -16813499.181 11398227.666 15459274.446 10 0 60950 49500.00000 0 -18477618.467 11942268.131 12940841.123 10 0 60950 50400.00000 0 -19790022.736 12501485.203 10171519.447 10 0 60950 51300.00000 0 -20732444.453 13019921.417 7204938.853 10 0 60950 52200.00000 0 -21299603.145 13440675.505 4098585.404 10 0 60950 53100.00000 0 -21499249.584 13708475.574 912694.797 10 0 60950 54000.00000 0 -21351679.054 13772200.411 -2290911.225 10 0 60950 54900.00000 0 -20888733.822 13587242.135 -5450022.790 10 0 60950 55800.00000 0 -20152336.260 13117609.435 -8503250.797 10 0 60950 56700.00000 0 -19192614.077 12337681.352 -11391223.055 10 0 60950 57600.00000 0 -18065696.481 11233535.984 -14057743.915 10 0 60950 58500.00000 0 -16831273.998 9803796.079 -16450894.178 10 0 60950 59400.00000 0 -15550024.981 8059953.806 -18524049.233 10 0 60950 60300.00000 0 -14281017.570 6026158.946 -20236794.968 10 0 60950 61200.00000 0 -13079196.971 3738477.396 -21555722.966 10 0 60950 62100.00000 0 -11993064.411 1243649.230 -22455089.005 10 0 60950 63000.00000 0 -11062645.963 -1402603.216 -22917321.572 10 0 60950 63900.00000 0 -10317837.190 -4137647.712 -22933370.091 10 0 60950 64800.00000 0 -9777193.573 -6894309.277 -22502885.765 10 0 60950 65700.00000 0 -9447217.788 -9603433.887 -21634231.221 10 0 60950 66600.00000 0 -9322173.737 -12196542.088 -20344318.560 10 0 60950 67500.00000 0 -9384434.885 -14608461.902 -18658278.804 10 0 60950 68400.00000 0 -9605351.638 -16779831.240 -16608969.130 10 0 60950 69300.00000 0 -9946600.429 -18659365.303 -14236327.588 10 0 60950 70200.00000 0 -10361956.555 -20205794.406 -11586588.126 10 0 60950 71100.00000 0 -10799414.769 -21389391.540 -8711371.642 10 0 60950 72000.00000 0 -11203566.732 -22193026.336 -5666671.474 10 0 60950 72900.00000 0 -11518133.557 -22612702.245 -2511753.860 10 0 60950 73800.00000 0 -11688545.114 -22657555.718 692004.270 10 0 60950 74700.00000 0 -11664455.975 -22349318.979 3882316.579 10 0 60950 75600.00000 0 -11402090.750 -21721270.755 6997203.395 10 0 60950 76500.00000 0 -10866319.172 -20816720.863 9976198.258 10 0 60950 77400.00000 0 -10032372.964 -19687094.074 12761521.000 10 0 60950 78300.00000 0 -8887132.037 -18389695.209 15299194.519 10 0 60950 79200.00000 0 -7429925.885 -16985250.393 17540083.894 10 0 60950 80100.00000 0 -5672816.617 -15535328.230 19440838.351 10 0 60950 81000.00000 0 -3640351.737 -14099749.046 20964718.868 10 0 60950 81900.00000 0 -1368796.841 -12734090.250 22082296.641 10 0 60950 82800.00000 0 1095120.183 -11487391.282 22772010.234 10 0 60950 83700.00000 0 3695901.904 -10400152.870 23020571.969 10 0 60950 84600.00000 0 6371341.760 -9502712.767 22823216.817 10 0 60950 85500.00000 0 9054867.896 -8814064.411 22183789.809 10 0 60951 0.00000 0 11678074.585 -8341166.599 21114670.848 10 0 60951 900.00000 0 14173339.293 -8078771.791 19636537.694 10 0 60951 1800.00000 0 16476415.042 -8009780.154 17777972.849 10 0 60951 2700.00000 0 18528896.689 -8106103.408 15574919.220 10 0 60951 3600.00000 0 20280456.422 -8330003.006 13069995.373 10 0 60951 4500.00000 0 21690757.871 -8635846.542 10311681.909 10 0 60951 5400.00000 0 22730969.365 -8972209.075 7353393.603 10 0 60951 6300.00000 0 23384813.505 -9284231.437 4252454.093 10 0 60951 7200.00000 0 23649108.980 -9516136.488 1068992.169 10 0 60951 8100.00000 0 23533781.584 -9613797.266 -2135219.588 10 0 60951 9000.00000 0 23061343.346 -9527248.271 -5297961.598 10 0 60951 9900.00000 0 22265861.061 -9213033.087 -8357776.223 10 0 60951 10800.00000 0 21191457.121 -8636288.171 -11255165.078 10 0 60951 11700.00000 0 19890405.123 -7772473.203 -13933751.006 10 0 60951 12600.00000 0 18420900.156 -6608673.203 -16341381.451 10 0 60951 13500.00000 0 16844597.489 -5144415.502 -18431151.075 10 0 60951 14400.00000 0 15224023.233 -3391964.961 -20162323.115 10 0 60951 15300.00000 0 13619966.187 -1376082.949 -21501130.872 10 0 60951 16200.00000 0 12088960.812 866741.782 -22421443.191 10 0 60951 17100.00000 0 10680967.466 3289559.878 -22905280.551 10 0 60951 18000.00000 0 9437347.685 5836674.204 -22943171.281 10 0 60951 18900.00000 0 8389219.719 8445728.238 -22534340.664 10 0 60951 19800.00000 0 7556263.454 11050083.541 -21686728.959 10 0 60951 20700.00000 0 6946024.707 13581387.474 -20416837.765 10 0 60951 21600.00000 0 6553747.688 15972224.104 -18749407.568 10 0 60951 22500.00000 0 6362741.964 18158737.620 -16716932.680 10 0 60951 23400.00000 0 6345267.467 20083118.510 -14359023.108 10 0 60951 24300.00000 0 6463899.055 21695848.484 -11721626.048 10 0 60951 25200.00000 0 6673311.654 22957610.250 -8856122.562 10 0 60951 26100.00000 0 6922409.073 23840782.413 -5818317.740 10 0 60951 27000.00000 0 7156705.004 24330457.400 -2667344.804 10 0 60951 27900.00000 0 7320854.034 24424940.615 535494.592 10 0 60951 28800.00000 0 7361224.302 24135711.047 3727930.282 10 0 60951 29700.00000 0 7228401.865 23486846.461 6847939.495 10 0 60951 30600.00000 0 6879520.104 22513938.908 9834954.406 10 0 60951 31500.00000 0 6280315.204 21262547.686 12631037.367 10 0 60951 32400.00000 0 5406820.736 19786256.146 15182000.922 10 0 60951 33300.00000 0 4246629.868 18144414.984 17438451.161 10 0 60951 34200.00000 0 2799672.154 16399667.342 19356734.831 10 0 60951 35100.00000 0 1078472.353 14615359.529 20899772.868 10 0 60951 36000.00000 0 -892119.694 12852945.353 22037765.461 10 0 60951 36900.00000 0 -3075717.132 11169491.718 22748756.325 10 0 60951 37800.00000 0 -5425669.841 9615388.395 23019046.612 10 0 60951 38700.00000 0 -7886771.798 8232356.014 22843451.611 10 0 60951 39600.00000 0 -10397332.238 7051833.756 22225396.083 10 0 60951 40500.00000 0 -12891526.094 6093812.410 21176846.906 10 0 60951 41400.00000 0 -15301927.740 5366160.084 19718084.300 10 0 60951 42300.00000 0 -17562124.485 4864467.634 17877315.703 10 0 60951 43200.00000 0 -19609302.792 4572419.541 15690138.968 10 0 60951 44100.00000 0 -21386701.076 4462674.319 13198864.198 10 0 60951 45000.00000 0 -22845827.880 4498217.519 10451706.154 10 0 60951 45900.00000 0 -23948353.695 4634130.674 7501861.631 10 0 60951 46800.00000 0 -24667597.637 4819702.113 4406488.518 10 0 60951 47700.00000 0 -24989546.570 5000790.973 1225605.452 10 0 60951 48600.00000 0 -24913363.597 5122344.859 -1979067.254 10 0 60951 49500.00000 0 -24451363.748 5130964.639 -5145303.236 10 0 60951 50400.00000 0 -23628457.101 4977407.526 -8211579.023 10 0 60951 51300.00000 0 -22481081.924 4618921.770 -11118272.521 10 0 60951 52200.00000 0 -21055671.891 4021313.042 -13808827.303 10 0 60951 53100.00000 0 -19406721.239 3160653.656 -16230859.376 10 0 60951 54000.00000 0 -17594528.724 2024560.557 -18337184.253 10 0 60951 54900.00000 0 -15682715.008 612986.217 -20086743.691 10 0 60951 55800.00000 0 -13735617.738 -1061512.973 -21445413.407 10 0 60951 56700.00000 0 -11815673.793 -2974044.112 -22386675.540 10 0 60951 57600.00000 0 -9980898.676 -5088171.648 -22892142.289 10 0 60951 58500.00000 0 -8282568.988 -7357206.038 -22951920.150 10 0 60951 59400.00000 0 -6763205.233 -9725934.514 -22564807.321 10 0 60951 60300.00000 0 -5454939.480 -12132722.541 -21738320.152 10 0 60951 61200.00000 0 -4378336.098 -14511898.640 -20488547.886 10 0 60951 62100.00000 0 -3541714.520 -16796323.170 -18839838.368 10 0 60951 63000.00000 0 -2941001.691 -18920033.667 -16824320.760 10 0 60951 63900.00000 0 -2560119.306 -20820855.919 -14481274.638 10 0 60951 64800.00000 0 -2371888.227 -22442871.235 -11856358.011 10 0 60951 65700.00000 0 -2339410.378 -23738636.398 -9000709.692 10 0 60951 66600.00000 0 -2417868.148 -24671063.148 -5969944.182 10 0 60951 67500.00000 0 -2556663.532 -25214878.548 -2823059.442 10 0 60951 68400.00000 0 -2701804.869 -25357605.422 378720.283 10 0 60951 69300.00000 0 -2798438.672 -25100022.447 3573143.027 10 0 60951 70200.00000 0 -2793418.102 -24456085.678 6698144.866 10 0 60951 71100.00000 0 -2637798.380 -23452316.070 9693058.478 10 0 60951 72000.00000 0 -2289152.967 -22126680.096 12499790.541 10 0 60951 72900.00000 0 -1713612.259 -20527011.757 15063944.949 10 0 60951 73800.00000 0 -887538.716 -18709043.244 17335870.396 10 0 60951 74700.00000 0 201232.100 -16734127.521 19271612.574 10 0 60951 75600.00000 0 1552636.607 -14666748.400 20833753.591 10 0 60951 76500.00000 0 3154146.040 -12571921.942 21992123.583 10 0 60951 77400.00000 0 4981057.096 -10512596.963 22724372.088 10 0 60951 78300.00000 0 6997298.642 -8547161.841 23016389.471 10 0 60951 79200.00000 0 9156721.572 -6727160.000 22862571.409 10 0 60951 80100.00000 0 11404819.103 -5095307.507 22265922.189 10 0 60951 81000.00000 0 13680807.263 -3683893.571 21237995.303 10 0 60951 81900.00000 0 15919980.581 -2513628.894 19798672.518 10 0 60951 82800.00000 0 18056246.608 -1592988.481 17975785.320 10 0 60951 83700.00000 0 20024735.394 -918075.218 15804585.307 10 0 60951 84600.00000 0 21764376.678 -473009.148 13327072.668 10 0 60951 85500.00000 0 23220338.434 -230825.778 10591194.606 10 0 60952 0.00000 0 24346225.673 -154845.601 7649928.215 10 0 60952 900.00000 0 25105948.312 -200457.392 4560262.823 10 0 60952 1800.00000 0 25475178.614 -317240.392 1382104.627 10 0 60952 2700.00000 0 25442338.353 -451336.005 -1822881.077 10 0 60952 3600.00000 0 25009071.843 -547968.845 -4992464.031 10 0 60952 4500.00000 0 24190184.778 -554010.305 -8065057.854 10 0 60952 5400.00000 0 23013050.138 -420475.611 -10980919.609 10 0 60952 6300.00000 0 21516505.071 -104847.823 -13683316.299 10 0 60952 7200.00000 0 19749284.173 426870.786 -16119634.978 10 0 60952 8100.00000 0 17768054.153 1198468.239 -18242414.231 10 0 60952 9000.00000 0 15635131.895 2222266.438 -20010276.265 10 0 60952 9900.00000 0 13415981.330 3498353.692 -21388740.865 10 0 60952 10800.00000 0 11176593.942 5014340.476 -22350904.797 10 0 60952 11700.00000 0 8980862.612 6745650.534 -22877973.001 10 0 60952 12600.00000 0 6888058.877 8656336.766 -22959630.809 10 0 60952 13500.00000 0 4950519.193 10700389.065 -22594249.623 10 0 60952 14400.00000 0 3211636.977 12823480.368 -21788921.755 10 0 60952 15300.00000 0 1704244.244 14965078.510 -20559323.530 10 0 60952 16200.00000 0 449450.131 17060835.778 -18929409.148 10 0 60952 17100.00000 0 -544015.793 19045156.209 -16930941.176 10 0 60952 18000.00000 0 -1279928.920 20853832.856 -14602866.898 10 0 60952 18900.00000 0 -1774159.809 22426644.153 -11990552.889 10 0 60952 19800.00000 0 -2053748.068 23709800.133 -9144893.120 10 0 60952 20700.00000 0 -2155500.746 24658135.476 -6121308.620 10 0 60952 21600.00000 0 -2124176.265 25236957.156 -2978658.988 10 0 60952 22500.00000 0 -2010332.537 25423469.140 221912.188 10 0 60952 23400.00000 0 -1867932.019 25207714.666 3418174.449 10 0 60952 24300.00000 0 -1751806.561 24592997.146 6548025.985 10 0 60952 25200.00000 0 -1715090.596 23595762.964 9550703.135 10 0 60952 26100.00000 0 -1806732.074 22244952.170 12367959.852 10 0 60952 27000.00000 0 -2069186.907 20580845.433 14945194.103 10 0 60952 27900.00000 0 -2536394.421 18653456.582 17232499.599 10 0 60952 28800.00000 0 -3232119.101 16520538.773 19185623.075 10 0 60952 29700.00000 0 -4168728.212 14245288.040 20766809.563 10 0 60952 30600.00000 0 -5346456.416 11893839.937 21945520.537 10 0 60952 31500.00000 0 -6753188.092 9532663.136 22699012.343 10 0 60952 32400.00000 0 -8364766.583 7225957.423 23012765.115 10 0 60952 33300.00000 0 -10145817.874 5033162.923 22880755.017 10 0 60952 34200.00000 0 -12051055.060 3006682.431 22305565.453 10 0 60952 35100.00000 0 -14027010.300 1189909.703 21298335.594 10 0 60952 36000.00000 0 -16014123.452 -384356.122 19878547.279 10 0 60952 36900.00000 0 -17949101.848 -1695045.606 18073654.049 10 0 60952 37800.00000 0 -19767454.404 -2733457.713 15918558.761 10 0 60952 38700.00000 0 -21406095.821 -3503376.525 13454948.792 10 0 60952 39600.00000 0 -22805913.315 -4020661.789 10730500.555 10 0 60952 40500.00000 0 -23914189.434 -4312330.777 7797967.440 10 0 60952 41400.00000 0 -24686779.988 -4415170.167 4714167.705 10 0 60952 42300.00000 0 -25089955.786 -4373936.201 1538891.002 10 0 60952 43200.00000 0 -25101830.349 -4239218.869 -1666255.921 10 0 60952 44100.00000 0 -24713312.887 -4065060.191 -4839042.307 10 0 60952 45000.00000 0 -23928545.124 -3906427.379 -7917822.081 10 0 60952 45900.00000 0 -22764802.414 -3816648.113 -10842734.448 10 0 60952 46800.00000 0 -21251862.088 -3844917.104 -13556872.557 10 0 60952 47700.00000 0 -19430864.081 -4033980.360 -16007396.898 10 0 60952 48600.00000 0 -17352710.657 -4418096.401 -18146571.094 10 0 60952 49500.00000 0 -15076071.443 -5021362.038 -19932699.289 10 0 60952 50400.00000 0 -12665076.781 -5856475.066 -21330946.246 10 0 60952 51300.00000 0 -10186795.588 -6923987.762 -22314023.654 10 0 60952 52200.00000 0 -7708603.002 -8212084.344 -22862728.847 10 0 60952 53100.00000 0 -5295547.822 -9696893.323 -22966325.028 10 0 60952 54000.00000 0 -3007829.695 -11343323.000 -22622755.266 10 0 60952 54900.00000 0 -898491.380 -13106386.138 -21838685.818 10 0 60952 55800.00000 0 988577.666 -14932958.976 -20629377.686 10 0 60952 56700.00000 0 2620243.284 -16763901.236 -19018388.720 10 0 60952 57600.00000 0 3975267.860 -18536448.285 -17037111.989 10 0 60952 58500.00000 0 5044943.922 -20186774.881 -14724159.467 10 0 60952 59400.00000 0 5833194.795 -21652622.477 -12124603.239 10 0 60952 60300.00000 0 6356139.651 -22875879.230 -9289089.410 10 0 60952 61200.00000 0 6641143.063 -23805003.721 -6272842.613 10 0 60952 62100.00000 0 6725391.074 -24397190.071 -3134581.291 10 0 60952 63000.00000 0 6654055.910 -24620183.123 64634.226 10 0 60952 63900.00000 0 6478128.813 -24453667.313 3262597.385 10 0 60952 64800.00000 0 6252014.396 -23890171.147 6397170.654 10 0 60952 65700.00000 0 6030989.751 -22935449.758 9407495.960 10 0 60952 66600.00000 0 5868636.838 -21608330.284 12235176.211 10 0 60952 67500.00000 0 5814357.434 -19940027.382 14825404.858 10 0 60952 68400.00000 0 5911075.832 -17972958.427 17128021.779 10 0 60952 69300.00000 0 6193226.201 -15759108.657 19098475.614 10 0 60952 70200.00000 0 6685109.020 -13358014.951 20698674.887 10 0 60952 71100.00000 0 7399685.336 -10834452.316 21897712.668 10 0 60952 72000.00000 0 8337859.032 -8255919.023 22672452.092 10 0 60952 72900.00000 0 9488276.966 -5690024.065 23007962.750 10 0 60952 73800.00000 0 10827655.365 -3201884.158 22897800.732 10 0 60952 74700.00000 0 12321619.208 -851636.773 22344127.777 10 0 60952 75600.00000 0 13926020.229 1307829.392 21357667.765 10 0 60952 76500.00000 0 15588679.616 3232834.142 19957501.479 10 0 60952 77400.00000 0 17251483.905 4890476.022 18170703.251 10 0 60952 78300.00000 0 18852747.998 6259749.324 16031825.794 10 0 60952 79200.00000 0 20329747.983 7332162.554 13582242.127 10 0 60952 80100.00000 0 21621319.050 8111833.474 10869356.172 10 0 60952 81000.00000 0 22670410.665 8615057.273 7945696.008 10 0 60952 81900.00000 0 23426492.508 8869366.281 4867906.215 10 0 60952 82800.00000 0 23847710.275 8912120.741 1695657.898 10 0 60952 83700.00000 0 23902700.406 8788689.870 -1509503.155 10 0 60952 84600.00000 0 23571986.585 8550299.813 -4685348.203 10 0 60952 85500.00000 0 22848898.043 8251639.367 -7770174.037 10 0 60953 0.00000 0 21739969.835 7948324.898 -10704004.246 10 0 60953 900.00000 0 20264805.936 7694331.927 -13429761.029 10 0 60953 1800.00000 0 18455410.943 7539503.114 -15894380.231 10 0 60953 2700.00000 0 16355015.023 7527238.414 -18049852.490 10 0 60953 3600.00000 0 14016441.437 7692466.664 -19854165.622 10 0 60953 4500.00000 0 11500083.577 8059985.446 -21272130.871 10 0 60953 5400.00000 0 8871575.516 8643240.766 -22276076.111 10 0 60953 6300.00000 0 6199252.914 9443599.454 -22846392.082 10 0 60953 7200.00000 0 3551510.113 10450146.310 -22971920.572 10 0 60953 8100.00000 0 994163.558 11640015.765 -22650176.697 10 0 60953 9000.00000 0 -1412068.561 12979245.135 -21887400.652 10 0 60953 9900.00000 0 -3613865.374 14424114.298 -20698437.660 10 0 60953 10800.00000 0 -5567285.414 15922915.936 -19106448.314 10 0 60953 11700.00000 0 -7239349.434 17418082.057 -17142454.819 10 0 60953 12600.00000 0 -8609158.442 18848577.170 -14844732.040 10 0 60953 13500.00000 0 -9668501.274 20152457.087 -12258055.402 10 0 60953 14400.00000 0 -10421927.562 21269485.055 -9432820.654 10 0 60953 15300.00000 0 -10886284.728 22143694.422 -6424053.303 10 0 60953 16200.00000 0 -11089740.407 22725789.274 -3290327.740 10 0 60953 17100.00000 0 -11070333.517 22975281.405 -92618.041 10 0 60953 18000.00000 0 -10874117.198 22862273.258 3106896.173 10 0 60953 18900.00000 0 -10552973.968 22368811.733 6246044.656 10 0 60953 19800.00000 0 -10162197.129 21489756.052 9263877.841 10 0 60953 20700.00000 0 -9757941.965 20233123.658 12101850.389 10 0 60953 21600.00000 0 -9394655.361 18619900.175 14704953.865 10 0 60953 22500.00000 0 -9122592.796 16683322.057 17022776.729 10 0 60953 23400.00000 0 -8985527.503 14467662.463 19010471.707 10 0 60953 24300.00000 0 -9018747.981 12026571.457 20629612.719 10 0 60953 25200.00000 0 -9247427.530 9421039.719 21848926.040 10 0 60953 26100.00000 0 -9685433.654 6717070.196 22644882.847 10 0 60953 27000.00000 0 -10334626.680 3983153.673 23002143.074 10 0 60953 27900.00000 0 -11184676.581 1287651.834 22913843.199 10 0 60953 28800.00000 0 -12213405.540 -1303805.113 22381723.291 10 0 60953 29700.00000 0 -13387642.220 -3730800.111 21416091.450 10 0 60953 30600.00000 0 -14664552.635 -5940389.171 20035626.393 10 0 60953 31500.00000 0 -15993392.944 -7889047.524 18267021.713 10 0 60953 32400.00000 0 -17317612.015 -9544222.821 16144477.954 10 0 60953 33300.00000 0 -18577217.098 -10885432.136 13709051.301 10 0 60953 34200.00000 0 -19711304.626 -11904858.032 11007870.307 10 0 60953 35100.00000 0 -20660651.135 -12607419.583 8093234.549 10 0 60953 36000.00000 0 -21370256.202 -13010315.694 5021611.523 10 0 60953 36900.00000 0 -21791730.729 -13142059.979 1852550.229 10 0 60953 37800.00000 0 -21885429.991 -13041047.754 -1352468.116 10 0 60953 38700.00000 0 -21622240.822 -12753715.289 -4531220.399 10 0 60953 39600.00000 0 -20984946.608 -12332368.910 -7621949.807 10 0 60953 40500.00000 0 -19969111.153 -11832775.662 -10564568.233 10 0 60953 41400.00000 0 -18583442.552 -11311617.547 -13301829.087 10 0 60953 42300.00000 0 -16849619.965 -10823917.389 -15780447.040 10 0 60953 43200.00000 0 -14801588.790 -10420545.797 -17952142.293 10 0 60953 44100.00000 0 -12484352.202 -10145915.460 -19774588.410 10 0 60953 45000.00000 0 -9952308.340 -10035961.211 -21212244.601 10 0 60953 45900.00000 0 -7267201.622 -10116492.220 -22237055.756 10 0 60953 46800.00000 0 -4495772.970 -10401987.014 -22829006.136 10 0 60953 47700.00000 0 -1707206.513 -10894883.191 -22976515.533 10 0 60953 48600.00000 0 1029521.068 -11585392.768 -22676669.879 10 0 60953 49500.00000 0 3648278.235 -12451851.743 -21935281.476 10 0 60953 50400.00000 0 6088293.480 -13461589.764 -20766777.471 10 0 60953 51300.00000 0 8296442.699 -14572283.589 -19193918.504 10 0 60953 52200.00000 0 10229213.916 -15733737.440 -17247352.923 10 0 60953 53100.00000 0 11854267.760 -16890015.011 -14965015.270 10 0 60953 54000.00000 0 13151529.249 -17981832.825 -12391380.926 10 0 60953 54900.00000 0 14113766.258 -18949113.418 -9576591.820 10 0 60953 55800.00000 0 14746631.830 -19733589.873 -6575470.828 10 0 60953 56700.00000 0 15068170.272 -20281351.040 -3446444.833 10 0 60953 57600.00000 0 15107809.795 -20545219.342 -250398.319 10 0 60953 58500.00000 0 14904886.154 -20486860.270 2950519.154 10 0 60953 59400.00000 0 14506761.607 -20078534.258 6094107.472 10 0 60953 60300.00000 0 13966620.418 -19304417.017 9119328.062 10 0 60953 61200.00000 0 13341035.550 -18161432.875 11967489.419 10 0 60953 62100.00000 0 12687410.369 -16659566.396 14583382.856 10 0 60953 63000.00000 0 12061403.995 -14821639.614 16916346.607 10 0 60953 63900.00000 0 11514449.017 -12682564.580 18921238.221 10 0 60953 64800.00000 0 11091465.830 -10288102.725 20559297.332 10 0 60953 65700.00000 0 10828869.120 -7693182.742 21798883.338 10 0 60953 66600.00000 0 10752949.402 -4959846.736 22616075.022 10 0 60953 67500.00000 0 10878696.610 -2154909.237 22995121.910 10 0 60953 68400.00000 0 11209114.214 652574.860 22928739.845 10 0 60953 69300.00000 0 11735052.015 3393929.840 22418245.992 10 0 60953 70200.00000 0 12435564.330 6003459.345 21473531.251 10 0 60953 71100.00000 0 13278778.728 8420921.218 20112870.720 10 0 60953 72000.00000 0 14223239.429 10593776.194 18362575.584 10 0 60953 72900.00000 0 15219669.943 12479118.772 16256492.455 10 0 60953 73800.00000 0 16213082.099 14045211.449 13835358.822 10 0 60953 74700.00000 0 17145144.092 15272559.532 11146025.905 10 0 60953 75600.00000 0 17956709.104 16154482.467 8240562.713 10 0 60953 76500.00000 0 18590398.928 16697158.174 5175257.450 10 0 60953 77400.00000 0 18993134.414 16919138.799 2009534.713 10 0 60953 78300.00000 0 19118506.007 16850358.009 -1195191.245 10 0 60953 79200.00000 0 18928883.877 16530671.348 -4376705.354 10 0 60953 80100.00000 0 18397177.834 16007991.094 -7473199.591 10 0 60953 81000.00000 0 17508171.375 15336094.054 -10424476.199 10 0 60953 81900.00000 0 16259371.975 14572194.895 -13173122.457 10 0 60953 82800.00000 0 14661339.959 13774387.688 -15665633.530 10 0 60953 83700.00000 0 12737480.118 12999064.110 -17853460.905 10 0 60953 84600.00000 0 10523302.927 12298417.926 -19693965.385 10 0 60953 85500.00000 0 8065184.660 11718141.858 -21151255.425 99